www.pogodaiklimat.ru

Погода и климат >> Архив погоды >> Молдова >> Рыбница


ПОГОДА в Рыбнице

  • Прогноз погоды в Рыбнице
  • Монитор погоды в Рыбнице

АРХИВ ПОГОДЫ в Рыбнице

Время (UTC), дата Ветер
(напр.,м/с)
 
Видим.   Явления Облачность Т
(С)
Тd
(С)
f
(%)
Тe
(С)
Тes
(С)
Комфортность P
(гПа)
Po
(гПа)
Тmin
(С)
Tmax
(С)
R
(мм)
R24
(мм)
S
(см)
12 12.06 СВ 3 20 км 4/1 1000 м
[Cu med, cong Ci fib]
+30.9 +14.8 38 +33 +44 душно 1013.7 1000.3
15 12.06 СВ 3 20 км 3/0
[Ci fib]
+30.5 +13.3 35 +32 +36 жарко 1013.2 999.8
18 12.06 С 2 20 км 3/0
[Ci fib]
+27.0 +15.9 51 +30 +30 душно 1013.7 1000.2 +31.0
21 12.06 штиль 0 10 км 3/0
[Ci sp]
+21.9 +16.1 70 +26 +26 душно 1014.5 1000.6
00 13.06 штиль 0 10 км ясно +19.1 +16.6 85 +21 +21 комфорт 1014.6 1000.6
03 13.06 штиль 0 20 км ясно +17.7 +15.9 89 +18 +18 1014.8 1000.7
06 13.06 С 1 20 км ясно +23.7 +17.8 70 +28 +37 душно 1015.6 1001.8 +17.5
09 13.06 С 1 20 км ясно +28.3 +17.2 51 +32 +53 опасность
солнечного
удара
1015.6 1002.1
12 13.06 В 2 20 км 3/3 1000 м
[Cu hum]
+30.7 +15.9 41 +34 +44 очень
душно
1015.8 1002.4
15 13.06 В 2 20 км в посл. час гроза 8/3 1000 м
[Cu hum Ac trans Ci sp]
+25.6 +14.4 50 +28 +30 жарко 1016.7 1003.0
18 13.06 штиль 0 20 км {гроза} 9/0
[Ac trans Ci sp]
+24.2 +14.7 55 +27 +27 жарко 1016.2 1002.5 +31.1
21 13.06 штиль 0 10 км 10/0
[Ac und]
+22.4 +16.9 71 +27 +27 душно 1017.3 1003.5
00 14.06 штиль 0 10 км 10/0
[Ac und]
+21.3 +16.4 74 +25 +25 комфорт 1017.8 1003.9
03 14.06 штиль 0 20 км ясно +19.9 +16.8 82 +22 +23 комфорт 1017.7 1003.7
06 14.06 штиль 0 20 км 3/0
[Ac trans]
+23.7 +18.1 71 +28 +37 душно 1018.2 1004.5 +19.8
09 14.06 СВ 2 20 км 4/0
[Ac trans]
+28.9 +18.1 52 +34 +47 очень
душно
1018.0 1004.5
12 14.06 СВ 3 20 км ясно +31.1 +16.3 41 +34 +47 душно 1018.0 1004.5
15 14.06 СВ 2 20 км 3/0
[Ci fib]
+31.1 +16.7 42 +34 +39 душно 1017.2 1003.8
18 14.06 СЗ 2 20 км 4/0
[Ci fib]
+28.1 +18.7 57 +33 +33 очень
душно
1017.4 1003.8 +31.4
21 14.06 штиль 0 10 км 3/0
[Ci fib]
+22.9 +19.7 82 +29 +29 очень
душно
1018.2 1004.4
00 15.06 штиль 0 10 км ясно +21.1 +20.0 93 +26 +26 душно 1018.8 1004.9
03 15.06 штиль 0 20 км ясно +19.1 +18.3 95 +21 +21 комфорт 1018.2 1004.2
06 15.06 штиль 0 20 км ясно +24.9 +20.2 75 +31 +41 очень
душно
1016.9 1003.2 +18.2
09 15.06 З 2 20 км 3/3 1000 м
[Cu med, cong]
+29.5 +18.9 53 +35 +47 очень
душно
1016.3 1002.8
12 15.06 З 3 20 км 6/6 600 м
[Cb calv]
+30.7 +16.9 44 +34 +40 очень
душно
1014.7 1001.3
15 15.06 штиль 0 20 км {гроза, ливн. осадки} 9/0
[Ac trans Ci sp]
+26.3 +20.4 70 +33 +37 очень
душно
1014.2 1000.6
18 15.06 штиль 0 20 км {гроза, ливн. осадки} 8/0
[Ci fib]
+25.5 +20.5 74 +32 +32 очень
душно
1013.5 999.9 +31.5 5
21 15.06 штиль 0 10 км 6/0
[Ci fib]
+20.5 +18.4 88 +24 +24 комфорт 1015.3 1001.4
00 16.06 штиль 0 10 км ясно +19.9 +18.8 93 +23 +23 комфорт 1014.0 1001.0
03 16.06 штиль 0 20 км ясно +17.9 +16.9 94 +18 +18 1014.9 1000.8
06 16.06 штиль 0 20 км ясно +24.9 +20.3 76 +31 +41 очень
душно
1013.7 1000.1 +17.8
09 16.06 С 1 20 км 1/0
[Ci sp]
+30.1 +20.8 58 +37 +58 опасность
солнечного
удара
1013.4 1000.0
12 16.06 С 2 20 км 3/3 1000 м
[Cu hum Ci sp]
+30.7 +16.8 43 +34 +45 очень
душно
1013.0 999.6
15 16.06 С 2 20 км 6/1 1000 м
[Cu hum Ac trans Ci fib]
+31.4 +15.1 37 +34 +37 душно 1012.0 998.6
18 16.06 штиль 0 20 км 3/0
[Ac trans Ci fib]
+25.9 +19.2 67 +31 +31 очень
душно
1012.4 998.9 +32.5
21 16.06 штиль 0 10 км 4/0
[Ac trans Ci fib]
+21.5 +18.8 85 +26 +26 душно 1013.5 999.7
00 17.06 штиль 0 10 км 4/0
[Ac trans Ci fib]
+19.2 +17.9 92 +21 +21 комфорт 1013.6 999.7
03 17.06 штиль 0 20 км ясно +18.3 +16.9 92 +19 +19 1014.8 1000.8
06 17.06 штиль 0 20 км ясно +25.4 +19.5 70 +31 +41 очень
душно
1015.0 1001.3 +18.2
09 17.06 штиль 0 20 км ясно +29.4 +18.2 51 +34 +58 опасность
солнечного
удара
1015.1 1001.6
12 17.06 СВ 1 20 км 3/3 1000 м
[Cu hum]
+30.6 +17.4 45 +35 +47 очень
душно
1014.3 1000.9
15 17.06 СВ 2 20 км 6/0
[Ci sp]
+31.1 +16.7 42 +34 +39 душно 1013.6 1000.2
18 17.06 СВ 3 10 км в посл. час гроза {ливн. осадки} 9/6 600 м
[Cb calv Ac trans Ci sp]
+20.9 +17.4 80 +25 +25 комфорт 1015.8 1001.9 +31.5 1
21 17.06 СВ 2 10 км 8/0
[Ac trans Ci sp]
+20.5 +18.1 86 +25 +25 комфорт 1016.5 1002.6
00 18.06 штиль 0 10 км ясно +17.8 +15.9 89 +18 +18 1016.7 1002.6
03 18.06 штиль 0 20 км ясно +18.1 +16.9 93 +18 +19 1016.3 1002.3
06 18.06 С 2 20 км 3/3 1000 м
[Cu hum]
+23.1 +19.8 82 +30 +35 очень
душно
1016.9 1003.1 +17.4
09 18.06 20 км н/о +26.9 +21.0 70 +34 +39 очень
душно
1017.8 1004.2
12 18.06 СВ 3 20 км 8/6 600 м
[Cb calv Ci fib]
+28.3 +20.0 61 +35 +39 очень
душно
1015.8 1002.3
15 18.06 СВ 2 20 км 10/4 600 м
[Cb calv Cs]
+28.1 +20.0 61 +34 +37 очень
душно
1015.8 1002.3
18 18.06 С 2 20 км 9/0
[Ac trans Ci fib]
+25.9 +20.0 70 +32 +32 очень
душно
1015.1 1001.5 +30.1
21 18.06 С 1 10 км 8/0
[Ci fib]
+22.5 +19.4 83 +29 +29 очень
душно
1015.9 1002.1
00 19.06 С 1 10 км 4/0
[Ci fib]
+19.9 +18.1 89 +24 +24 комфорт 1016.3 1002.4
03 19.06 штиль 0 20 км 9/0
[Ci fib]
+19.4 +18.4 94 +22 +22 комфорт 1016.1 1002.1
06 19.06 С 2 20 км 8/0
[Ci sp]
+23.7 +19.8 79 +29 +36 душно 1015.8 1002.1 +18.2

 

Местоположение метеостанции Рыбница (Молдова): широта 47.77 долгота 29.02 высота над уровнем моря 119 м.

В архиве по умолчанию представлена погода в Рыбнице за последнюю неделю. Архивные данные за месяц целиком и за предыдущие месяцы, начиная с января 2011 года, Вы можете получить, выбрав интересующий диапазон дат из раскрывающегося списка и нажав кнопку "Ввод!".


*Определитесь, кто Вы:
робот инопланетянин человек

Внимание! Время в таблицах - всемирное. Для получения местного времени необходимо прибавить поправку, которая равна 2 ч.

Смотрите также архив погоды в соседних городах и на ближайших метеорологических станциях:

Погода в Каменке (Молдова) (37 км)
Погода в Дубоссарах (Молдова) (55 км)
Погода в Бравичах (Молдова) (63 км)
Погода в Сороках (Молдова) (72 км)
Погода в Бельцах (Молдова) (80 км)
Погода в Балцате (Молдова) (80 км)
Погода в Затишье (Одесская область, Украина) (81 км)
Погода в Кишиневе (Молдова) (83 км)
Погода в Корнестах (Молдова) (86 км)
Погода в Кодрах (Молдова) (90 км)

Пояснения к столбцам:

Ветер - указаны скорость ветра в м/с - средняя за 10 мин, порывы в срок и между сроками (в фигурных скобках) и направление, откуда дует ветер: С - северный, СВ - северо-восточный, В - восточный, ЮВ - юго-восточный, Ю - южный, ЮЗ - юго-западный, З - западный, СЗ - северо-западный.
Видимость - горизонтальная дальность видимости в метрах или километрах. При видимости от 1 до 10 км при отсутствии осадков обычно наблюдается дымка, при ухудшении видимости до 1 км и менее - туман. В сухую погоду видимость может ухудшаться дымом, пылью или мглою.
Явления - указаны атмосферные явления, наблюдавшиеся в срок или в последний час перед сроком; фигурными скобками обозначены явления, наблюдавшиеся между сроками (за 1-3 часа до срока); квадратными скобками обозначены град или гололедные отложения с указанием их диаметра в мм.
Облачность - указаны через наклонную черту общая и нижняя облачность в баллах и высота нижней границы облаков в метрах; квадратными скобками обозначены формы облаков: Ci - перистые, Cs - перисто-слоистые, Cc - перисто-кучевые, Ac - высококучевые, As - высокослоистые, Sc - слоисто-кучевые, Ns - слоисто-дождевые, Cu - кучевые, Cb - кучево-дождевые. Подробнее классификацию облаков см. в Атласе облаков (PDF).
T - Температура воздуха - температура, измеренная на высоте 2 м над землей.
Td - Температура точки росы - температура, при понижении до которой содержащийся в воздухе водяной пар достигнет насыщения.
f - Относительная влажность воздуха - влажноcть воздуха, измеренная на высоте 2 м над землей.
Te - Эффективная температура - температура, которую ощущает одетый по сезону человек в тени. Характеристика душности погоды. При расчете учитывается влияние влажности воздуха и скорости ветра на теплоощущения человека.
Tes - Эффективная температура на солнце - температура, которую ощущает человек, с поправкой на солнечный нагрев. Характеристика знойности погоды. Зависит от высоты солнца над горизонтом, облачности и скорости ветра. Ночью, в пасмурную погоду, а также при ветре 12 м/с и более поправка равна нулю.
P - Атмосферное давление - приведенное к уровню моря атмосферное давление.
Po - Атмосферное давление - измеренное на уровне метеостанции атмосферное давление.
Tmin - Минимальная температура - минимум температуры воздуха на высоте 2 м над землей.
Tmax - Максимальная температура - максимум температуры воздуха на высоте 2 м над землей.
R - Количество осадков - Количество выпавших осадков за период времени, мм. При наведении курсора мыши на число - период времени, за который выпало указанное количество осадков.
R24 - Количество осадков - Количество выпавших осадков за 24 часа, мм.
S - Снежный покров - Высота снежного покрова, см. При наведении курсора мыши на число - состояние снежного покрова и степень покрытия местности в баллах.